Flag for Russia Weather past 2 weeks in Murmansk, Russia

Now
34 °F

Partly cloudy.


Feels Like: 27 °F
Forecast: 31 / 40 °F
Wind: 8 mph from South

Location: Murmansk Airport


UV Index: 0 (Low)

Visibility: N/A


Pressure: 29.74 "Hg

Humidity: 70%

Dew point: 25 °F

Location of MurmanskLocation

Historic Weather in Murmansk

°F

Murmansk temperature yesterday

Maximum temperature yesterday: 37 °F (at 6:00 PM)
Minimum temperature yesterday: 30 °F (at 12:00 AM)
Average temperature yesterday: 33 °F

Past Weeks' High & Low Weather Summary

 TemperatureHumidityPressure
High45 °F (Apr 12, 3:30 PM)100% (Apr 15, 2:00 AM)30.24 "Hg (Apr 15, 2:00 AM)
Low0 °F (Apr 3, 7:00 AM)26% (Apr 10, 3:30 PM)29.09 "Hg (Apr 5, 9:00 AM)
Average28 °F71%29.59 "Hg
* Reported Apr 1 11:00 PM — Apr 16 11:30 PM, Murmansk, Weather by CustomWeather, © 2014

Note: Actual official high and low records may vary slightly from our data, if they occured in-between our weather recording intervals... More about our weather records

Advertising

Historic Weather Conditions — Data for Previous 24 hours

 ConditionsComfort  
Time TempWeatherWind HumidityBarometerVisibility
11:30 PM
Apr 16
34 °FPartly cloudy.8 mph75%29.74 "HgN/A
11:00 PM34 °FPartly cloudy.10 mph75%29.77 "HgN/A
10:30 PM34 °FBroken clouds.8 mph75%29.77 "HgN/A
10:00 PM34 °FBroken clouds.8 mph75%29.80 "HgN/A
9:30 PM36 °FPartly sunny.8 mph70%29.83 "HgN/A
9:00 PM36 °FPartly sunny.8 mph70%29.83 "HgN/A
8:30 PM36 °FPartly sunny.6 mph70%29.83 "HgN/A
8:00 PM36 °FPartly sunny.6 mph70%29.86 "HgN/A
7:30 PM36 °FPartly sunny.6 mph70%29.86 "HgN/A
7:00 PM37 °FPartly sunny.6 mph65%29.86 "HgN/A
6:30 PM37 °FPartly sunny.6 mph65%29.89 "HgN/A
6:00 PM37 °FPartly sunny.3 mph65%29.89 "HgN/A
5:00 PM36 °FPartly sunny.3 mph75%29.92 "HgN/A
4:30 PM36 °FPartly sunny.3 mph75%29.92 "HgN/A
4:00 PM36 °FPartly sunny.1 mph75%29.92 "HgN/A
3:30 PM36 °FPartly sunny.No wind70%29.95 "HgN/A
3:00 PM36 °FPartly sunny.1 mph70%29.95 "HgN/A
2:30 PM34 °FPartly sunny.3 mph75%29.95 "HgN/A
2:00 PM34 °FPartly sunny.3 mph75%29.95 "HgN/A
1:30 PM34 °FPartly sunny.6 mph75%29.95 "HgN/A
1:00 PM34 °FPartly sunny.3 mph75%29.95 "HgN/A
12:30 PM32 °FPartly sunny.6 mph80%29.95 "HgN/A
12:00 PM32 °FPartly sunny.6 mph80%29.95 "HgN/A
11:30 AM32 °FSnow flurries. Partly sunny.6 mph80%29.95 "HgN/A
11:00 AM32 °FSnow flurries. Partly sunny.8 mph80%29.95 "HgN/A
10:30 AM32 °FSnow flurries. Partly sunny.8 mph80%29.95 "HgN/A
10:00 AM32 °FSnow flurries. Partly sunny.8 mph80%29.95 "HgN/A
9:30 AM30 °FSnow flurries. Partly sunny.6 mph86%29.95 "HgN/A
9:00 AM30 °FSnow flurries. Partly sunny.6 mph86%29.95 "HgN/A
8:30 AM30 °FSnow flurries. Partly sunny.8 mph86%29.92 "Hg2 mi
8:00 AM30 °FSnow flurries. Partly sunny.8 mph86%29.92 "Hg4 mi
7:30 AM30 °FSnow flurries. Partly sunny.6 mph86%29.92 "HgN/A
7:00 AM30 °FSnow flurries. Partly sunny.10 mph86%29.92 "HgN/A
6:30 AM30 °FSnow flurries. Passing clouds.6 mph86%29.89 "HgN/A
6:00 AM30 °FPassing clouds.8 mph86%29.89 "HgN/A
5:30 AM30 °FSnow flurries. Passing clouds.8 mph86%29.86 "HgN/A
5:00 AM30 °FSnow flurries. Passing clouds.8 mph93%29.86 "Hg6 mi
3:00 AM32 °FSnow flurries. Passing clouds.8 mph93%29.83 "Hg4 mi
2:30 AM32 °FSnow flurries. Passing clouds.6 mph93%29.80 "Hg5 mi
2:00 AM32 °FSnow flurries. Passing clouds.8 mph93%29.80 "Hg2 mi
1:30 AM32 °FSnow flurries. Passing clouds.8 mph93%29.77 "Hg4 mi
1:00 AM32 °FSnow flurries. Passing clouds.6 mph93%29.77 "Hg2 mi
12:30 AM30 °FSnow flurries. Passing clouds.6 mph93%29.74 "Hg2 mi
12:00 AM30 °FSnow flurries. Passing clouds.6 mph93%29.74 "Hg4 mi
Weather by CustomWeather, © 2014

See weather overview